Date String (YYYY-MM-DD hh:mm:ss) UTC,Instrument flags,Ambient pressure (hPa),Sample flow (lpm),Bypass flow (lpm),Sample temperature (°C),Ambient temperature (°C),ASC tube jacket temperature (°C),LED temperature (°C),Box temperature (°C),Sample RH (%),Span deviation,Mass concentration (μg/m³),Mass concentration (μg/m³),Mass concentration (μg/m³)
DateTimeUTC,F1_M11,P_M11,Q1_M11,Q2_M11,T1_M11,T2_M11,T3_M11,T4_M11,T5_M11,U1_M11,ZSPAN_M11,X0_M11,X2_M11,X1_M11
2022-06-18 08:00:00,,0823.1,5.00,0.00,29.6,28.6,00.0,38.4,31.5,20.5,0000.0,0011.87,0007.28,0006.09
2022-06-18 08:01:00,,0823.1,5.01,0.00,29.6,28.7,00.0,38.4,31.6,20.5,0000.0,0011.74,0007.14,0005.96
2022-06-18 08:02:00,,0823.1,5.00,0.00,29.7,28.7,00.0,38.4,31.6,20.5,0000.0,0011.63,0007.02,0005.84
2022-06-18 08:03:00,,0823.1,5.00,0.00,29.7,28.7,00.0,38.5,31.6,20.4,0000.0,0011.61,0006.89,0005.70
2022-06-18 08:04:00,,0823.1,5.01,0.00,29.7,28.8,00.0,38.5,31.7,20.3,0000.0,0011.44,0006.76,0005.56
2022-06-18 08:05:00,,0823.1,5.01,0.00,29.7,28.8,00.0,38.5,31.7,20.3,0000.0,0011.52,0006.67,0005.44
2022-06-18 08:06:00,,0823.1,5.01,0.00,29.7,28.8,00.0,38.5,31.7,20.3,0000.6,0011.77,0006.57,0005.33
2022-06-18 08:07:00,,0823.1,4.99,0.00,29.8,28.3,00.0,38.5,31.6,20.3,0000.7,0011.68,0006.49,0005.25
2022-06-18 08:08:00,,0823.1,5.00,0.00,29.7,27.6,00.0,38.4,31.4,20.2,0001.6,0011.61,0006.45,0005.19
2022-06-18 08:09:00,,0823.1,5.01,0.00,29.6,27.3,00.0,38.4,31.3,20.3,0000.0,0011.25,0006.36,0005.14
2022-06-18 08:10:00,,0823.1,5.00,0.00,29.5,27.3,00.0,38.4,31.2,20.5,0000.0,0011.19,0006.34,0005.12
2022-06-18 08:11:00,,0823.1,4.99,0.00,29.5,27.4,00.0,38.4,31.2,20.6,0000.0,0011.17,0006.32,0005.11
2022-06-18 08:12:00,,0823.1,4.99,0.00,29.5,27.6,00.0,38.4,31.2,20.7,0000.0,0011.22,0006.33,0005.12
2022-06-18 08:13:00,,0823.1,4.99,0.00,29.4,27.7,00.0,38.4,31.3,20.7,0000.0,0011.20,0006.34,0005.12
2022-06-18 08:14:00,,0823.1,4.99,0.00,29.4,27.8,00.0,38.3,31.3,20.8,0000.0,0011.16,0006.35,0005.13
2022-06-18 08:15:00,,0823.1,5.00,0.00,29.5,27.9,00.0,38.3,31.3,20.8,0000.0,0011.20,0006.35,0005.15
2022-06-18 08:16:00,,0823.1,5.00,0.00,29.5,28.1,00.0,38.3,31.3,20.7,0000.0,0011.23,0006.36,0005.16
2022-06-18 08:17:00,,0823.1,5.00,0.00,29.5,28.1,00.0,38.3,31.4,20.6,0000.0,0011.24,0006.33,0005.16
2022-06-18 08:18:00,,0823.1,5.01,0.00,29.5,28.2,00.0,38.3,31.4,20.6,0000.0,0011.10,0006.28,0005.16
2022-06-18 08:19:00,,0823.1,5.00,0.00,29.5,28.3,00.0,38.3,31.4,20.6,0000.0,0011.10,0006.30,0005.16
2022-06-18 08:20:00,,0823.0,5.00,0.00,29.5,28.4,00.0,38.4,31.4,20.6,0000.0,0011.20,0006.33,0005.16
2022-06-18 08:21:00,,0823.0,5.00,0.00,29.5,28.4,00.0,38.4,31.5,20.5,0000.0,0011.35,0006.34,0005.15
2022-06-18 08:22:00,,0822.9,4.99,0.00,29.6,28.5,00.0,38.4,31.5,20.5,0000.0,0011.41,0006.37,0005.14
2022-06-18 08:23:00,,0823.0,4.99,0.00,29.6,28.5,00.0,38.4,31.5,20.5,0000.0,0011.51,0006.38,0005.13
2022-06-18 08:24:00,,0822.9,5.01,0.00,29.6,28.6,00.0,38.4,31.5,20.4,0000.0,0011.44,0006.35,0005.12
2022-06-18 08:25:00,,0822.9,5.00,0.00,29.6,28.6,00.0,38.4,31.6,20.5,0000.0,0011.50,0006.32,0005.10
2022-06-18 08:26:00,,0822.9,5.00,0.00,29.6,28.7,00.0,38.4,31.6,20.6,0000.0,0011.48,0006.30,0005.07
2022-06-18 08:27:00,,0823.0,5.00,0.00,29.7,28.7,00.0,38.4,31.6,20.5,0000.0,0011.42,0006.27,0005.05
2022-06-18 08:28:00,,0823.1,4.99,0.00,29.7,28.7,00.0,38.5,31.6,20.3,0000.0,0011.13,0006.28,0005.04
2022-06-18 08:29:00,,0823.0,5.01,0.00,29.7,28.8,00.0,38.5,31.6,20.3,0000.0,0011.33,0006.36,0005.05
2022-06-18 08:30:00,,0823.0,5.00,0.00,29.7,28.8,00.0,38.5,31.7,20.3,0000.0,0011.35,0006.36,0005.04
2022-06-18 08:31:00,,0822.9,5.00,0.00,29.7,28.8,00.0,38.5,31.7,20.2,0000.0,0011.24,0006.35,0005.04
2022-06-18 08:32:00,,0822.9,5.00,0.00,29.8,28.8,00.0,38.5,31.7,20.2,0000.0,0011.09,0006.36,0005.05
2022-06-18 08:33:00,,0822.9,5.00,0.00,29.8,28.9,00.0,38.6,31.7,20.2,0000.0,0011.10,0006.38,0005.06
2022-06-18 08:34:00,,0823.0,5.00,0.00,29.8,28.5,00.0,38.5,31.7,20.2,0000.0,0011.05,0006.38,0005.06
2022-06-18 08:35:00,,0823.0,5.00,0.00,29.7,27.7,00.0,38.5,31.4,20.2,0000.0,0010.99,0006.36,0005.05
2022-06-18 08:36:00,,0823.0,5.01,0.00,29.7,27.3,00.0,38.4,31.3,20.3,0000.0,0010.81,0006.33,0005.05
2022-06-18 08:37:00,,0823.0,5.00,0.00,29.6,27.3,00.0,38.4,31.3,20.4,0000.0,0010.86,0006.36,0005.06
2022-06-18 08:38:00,,0823.0,4.99,0.00,29.5,27.4,00.0,38.4,31.3,20.4,0000.0,0010.86,0006.36,0005.06
2022-06-18 08:39:00,,0823.0,4.99,0.00,29.5,27.5,00.0,38.4,31.3,20.4,0000.0,0010.86,0006.32,0005.05
2022-06-18 08:40:00,,0823.0,5.01,0.00,29.5,27.7,00.0,38.4,31.3,20.4,0000.0,0010.81,0006.28,0005.03
2022-06-18 08:41:00,,0822.9,5.00,0.00,29.5,27.8,00.0,38.4,31.3,20.4,0000.0,0010.82,0006.24,0005.01
2022-06-18 08:42:00,,0823.0,5.00,0.00,29.5,27.9,00.0,38.4,31.3,20.3,0000.0,0010.86,0006.22,0004.98
2022-06-18 08:43:00,,0823.0,4.99,0.00,29.5,28.0,00.0,38.4,31.4,20.3,0000.0,0010.82,0006.17,0004.95
2022-06-18 08:44:00,,0823.0,5.01,0.00,29.5,28.1,00.0,38.4,31.4,20.3,0000.0,0010.70,0006.11,0004.91
2022-06-18 08:45:00,,0823.0,4.99,0.00,29.5,28.2,00.0,38.4,31.4,20.3,0000.0,0010.74,0006.11,0004.89
2022-06-18 08:46:00,,0823.0,5.00,0.00,29.5,28.3,00.0,38.4,31.4,20.3,0000.0,0010.81,0006.10,0004.87
2022-06-18 08:47:00,,0823.0,5.00,0.00,29.5,28.4,00.0,38.4,31.4,20.3,0000.0,0010.89,0006.10,0004.86
2022-06-18 08:48:00,,0823.0,5.00,0.00,29.6,28.4,00.0,38.4,31.5,20.4,0000.0,0010.79,0006.06,0004.85
2022-06-18 08:49:00,,0822.9,4.99,0.00,29.6,28.5,00.0,38.4,31.5,20.4,0000.0,0010.73,0006.05,0004.84
2022-06-18 08:50:00,,0823.0,5.00,0.00,29.6,28.5,00.0,38.4,31.5,20.4,0000.0,0010.61,0006.06,0004.83
2022-06-18 08:51:00,,0823.0,5.00,0.00,29.6,28.6,00.0,38.4,31.5,20.3,0000.0,0010.49,0006.05,0004.83
2022-06-18 08:52:00,,0823.0,5.00,0.00,29.6,28.6,00.0,38.4,31.6,20.3,0000.0,0010.49,0006.08,0004.85
2022-06-18 08:53:00,,0823.1,5.00,0.00,29.7,28.6,00.0,38.5,31.6,20.2,0000.0,0010.39,0006.08,0004.87
2022-06-18 08:54:00,,0823.1,4.99,0.00,29.7,28.7,00.0,38.5,31.6,20.2,0000.0,0010.50,0006.12,0004.91
2022-06-18 08:55:00,,0823.1,5.00,0.00,29.7,28.7,00.0,38.5,31.6,20.2,0000.0,0010.68,0006.18,0004.97
2022-06-18 08:56:00,,0823.1,5.01,0.00,29.7,28.8,00.0,38.5,31.7,20.3,0000.0,0011.14,0006.21,0005.01
2022-06-18 08:57:00,,0823.2,4.99,0.00,29.7,28.8,00.0,38.5,31.7,20.4,0000.0,0011.41,0006.22,0005.06
2022-06-18 08:58:00,,0823.1,5.00,0.00,29.8,28.8,00.0,38.5,31.7,20.3,0000.0,0011.41,0006.26,0005.11
2022-06-18 08:59:00,,0823.1,4.99,0.00,29.8,28.8,00.0,38.5,31.7,20.3,0000.0,0011.43,0006.31,0005.15
